This is the latest recevied weather packets stored in our database for station/object KI4FRU. If no packets are shown the sender has not sent any weather packets the latest 1 day(s).
| Time | Temp. | Humidity | Pressure | Rain* | Wind** | Luminosity | Snow |
|---|---|---|---|---|---|---|---|
| 1778052045 | 17.78° C | 88% | 1052.2 hPa | 0 mm | - | 0 W/m² | - |
| 1778051742 | 17.78° C | 88% | 1052.5 hPa | 0 mm | - | 0 W/m² | - |
| 1778050834 | 17.78° C | 87% | 1052.4 hPa | 0 mm | - | 0 W/m² | - |
| 1778050532 | 17.78° C | 87% | 1052.4 hPa | 0 mm | - | 0 W/m² | - |
| 1778050228 | 17.78° C | 87% | 1052.6 hPa | 0 mm | - | 0 W/m² | - |
| 1778049925 | 17.78° C | 88% | 1052.6 hPa | 0 mm | - | 0 W/m² | - |
| 1778049319 | 17.78° C | 86% | 1052.3 hPa | 0 mm | - | 0 W/m² | - |
| 1778049016 | 18.33° C | 85% | 1052.3 hPa | 0 mm | - | 0 W/m² | - |
| 1778048714 | 17.78° C | 84% | 1052 hPa | 0 mm | - | 0 W/m² | - |
| 1778047503 | 17.22° C | 84% | 1052.7 hPa | 0 mm | - | 0 W/m² | - |
| 1778047199 | 17.22° C | 84% | 1052.6 hPa | 0 mm | - | 0 W/m² | - |
| 1778046897 | 17.22° C | 84% | 1052.9 hPa | 0 mm | - | 0 W/m² | - |
| 1778046593 | 17.22° C | 83% | 1052.9 hPa | 0 mm | - | 0 W/m² | - |
| 1778046290 | 17.22° C | 83% | 1052.9 hPa | 0 mm | - | 0 W/m² | - |
| 1778045986 | 16.67° C | 83% | 1053 hPa | 0 mm | - | 0 W/m² | - |
| 1778045684 | 16.67° C | 83% | 1052.9 hPa | 0 mm | - | 0 W/m² | - |
| 1778045382 | 16.67° C | 83% | 1053 hPa | 0 mm | - | 0 W/m² | - |
| 1778045081 | 16.11° C | 84% | 1052.8 hPa | 0 mm | - | 0 W/m² | - |
| 1778044778 | 16.11° C | 85% | 1052.8 hPa | 0 mm | - | 0 W/m² | - |
| 1778044474 | 15.56° C | 85% | 1052.8 hPa | 0 mm | - | 0 W/m² | - |
| 1778043869 | 15.56° C | 86% | 1052.5 hPa | 0 mm | - | 0 W/m² | - |
| 1778043566 | 15.56° C | 87% | 1052.6 hPa | 0 mm | - | 0 W/m² | - |
| 1778043263 | 15.56° C | 88% | 1052.9 hPa | 0 mm | - | 0 W/m² | - |
| 1778042658 | 15° C | 87% | 1052.7 hPa | 0 mm | - | 0 W/m² | - |
| 1778041146 | 15° C | 91% | 1052.7 hPa | 0 mm | - | 0 W/m² | - |
* Rain latest hour (hover to see other rain measurements)
** Current wind speed in m/s (hover to see current wind gust speed)